User: anonymous   Login
Location: Unspecified
(0.0000°N, 0.0000°E)
Time: 01:56:29
(UTC+00:00)
Language:

HUMSAT D - Orbit

View from above orbital plane
View from above orbital plane
View from above satellite
View from above satellite

Ground track
Ground track

The orbit data is extracted from the following two-line orbital elements,

1 39433U 13066T   17147.72439181 +.00000671 +00000-0 +72234-4 0  9999
2 39433 097.6538 211.4496 0029652 285.7807 074.0143 14.91405362190969
Epoch (UTC): 27 May 2017 17:23:07
Eccentricity: 0.0029652
inclination: 97.6538°
perigee height: 573 km
apogee height: 614 km
right ascension of ascending node: 211.4496°
argument of perigee: 285.7807°
revolutions per day: 14.91405362
mean anomaly at epoch: 74.0143°
orbit number at epoch: 19096

The dashed part of the orbit path shows where the satellite is in the earth's shadow,  

DLR